DELTA 4 R/B, 35492

Orbit data source: Space-Track

DELTA 4 R/B, 35492 is space debris in HEO originally from a launch on Sat, 27 Jun 2009 UTC launched from the Air Force Eastern Test Range (AFETR). Debris objects in space refer to the collection of defunct objects orbiting the Earth. Examples of debris include non-operational satellites, rocket bodies, and fragments generated from explosions, collisions, or faulty payload assembly.

Loading next visibility...
Identifier
35492, 2009-033B
Orbit
HEO
Country
Flag of USUS
Related business
Flag of USUnited Launch Alliance/Lockheed Martin (US)
Manufacturer
ULA Decatur
Mission
Spacecraft
Bus & Motor
DCSS-4, RL10B-2
Mass
2,850 kg wet, 2,850 kg dry
Launch date (UTC)
2009-06-27 (16 years ago)
Launch vehicle
Unknown
Launch site
Air Force Eastern Test Range (AFETR)
Object type
Payload
Rocket body
Debris
Shape & HBR
Cyl + 1 Nozzle, 6.0 m
Radar Cross Section
43.982 m², Large (>1 m²)

Expand to show TLE details & history
Last TLE update: 22 hours ago

TLE from 22 hours ago
0 DELTA 4 R/B
1 35492U 09033B   25306.18239247 -.00000060  00000-0  00000-0 0  9997
2 35492  12.8436 108.5891 5188005  78.7200  73.1711  1.93162134115379
Epoch: 2025-11-02T04:22Z
TLE epoch observation values (Epoch: 2025-11-02T04:22:38.709Z)
Latitude
-6.36761°
Longitude
-149.46855°
Altitude
23,815.706 km
Speed
3.43 km/s
True Right ascension
21h 11m 34s
True Declination
-6° 21' 31"
Sunlit
Object was in daylight at epoch
Visualization orbit readout
Latitude
Unknown
Longitude
Unknown
Altitude
Unknown
Speed
Unknown
Apparent Right ascension
Unknown
Apparent Declination
Unknown
Sunlit
N/A
Visualization observer readout
Local Sidereal Time
21:49:10
Azimuth
Unknown
Elevation
Unknown
Doppler factor
Unknown
Orbital elements
Apogee altitude
34,989.406 km
Perigee altitude
6,728.285 km
Semi-major axis
27,236.983 km
Eccentricity
0.5188
Inclination
12.8436°
RAAN
108.5891°
Arg. of periapsis
78.72°
True anomaly
131.16376°
Mean anomaly
73.1711°
Eccentric anomaly
102.22241°
Mean motion
0.48284 °/min
Orbital period
745.59 mins
BSTAR
0
Loading maneuver chart data...
Computing Atmospheric mass density...
Loading historical data...
Loading historical data...
Loading historical data...
Loading historical data...
Loading historical data...
Loading historical data...
Loading historical data...
Other satellites on launch #33 in the year 2009 (2009-06-27 UTC)

Documentation

Showing up to 5 results
|